Regional Weather Roundup
Issued by NWS

Home | Current Version | Previous Version | Text Only | Print | Product List | Glossary On
Versions: 1 2 3 4 5 6 7 8 9 10 11 12 13 14 15 16 17 18 19 20 21 22 23 24 25 26 27 28 29 30 31 32 33 34 35 36 37 38 39 40 41 42 43 44 45 46 47 48 49 50
000
ASUS42 KFFC 011210
RWRGA
WEATHER ROUNDUP FOR GEORGIA
NATIONAL WEATHER SERVICE PEACHTREE CITY GA
800 AM EDT SAT AUG 01 2015

NOTE: "FAIR" INDICATES FEW OR NO CLOUDS BELOW 12,000 FEET WITH NO
SIGNIFICANT WEATHER AND/OR OBSTRUCTIONS TO VISIBILITY.

* = USE WITH CAUTION. THE STATIONS MARKED WITH AN ASTERISK MAY NOT
REPORT WEATHER SUCH AS PRECIPITATION, FOG, OR THUNDER AND ARE NOT
QUALITY CONTROLLED BY NWS.

THE REMARK "TC" DENOTES TEMPERATURE READING IN DEGREES CELSIUS.

GAZ001>058-011300-
NORTH GEORGIA

CITY           SKY/WX    TMP DP  RH WIND       PRES   REMARKS
ATLANTA        PTSUNNY   76  63  64 NE6       29.97R
6HR MIN TEMP:  73; 6HR MAX TEMP:  78;

ATHENS         PTSUNNY   75  62  64 NE5       29.97R
6HR MIN TEMP:  73; 6HR MAX TEMP:  77;

CHAMBLEE       PTSUNNY   76  66  71 N6        29.97R
6HR MIN TEMP:  71; 6HR MAX TEMP:  78;

PEACHTREE CITY PTSUNNY   73  65  75 N3        29.97R
6HR MIN TEMP:  69; 6HR MAX TEMP:  74;

ROME           SUNNY     71  62  73 CALM      29.98R
6HR MIN TEMP:  65; 6HR MAX TEMP:  72;

WEST ATLANTA   CLOUDY    72  64  76 CALM      29.97R
6HR MIN TEMP:  69; 6HR MAX TEMP:  76;

GAINESVILLE    CLOUDY    74  62  66 NE5       30.01R
6HR MIN TEMP:  72; 6HR MAX TEMP:  77;

CARTERSVILLE   CLOUDY    69  62  78 CALM      29.99R
6HR MIN TEMP:  64; 6HR MAX TEMP:  69;



CITY           SKY/WX    TMP DP  RH WIND       PRES   REMARKS
DALTON*        SUNNY     68  63  83 CALM      30.00R
LAWRENCEVILLE* MOSUNNY   73  57  56 NE8       29.96R
MARIETTA       CLOUDY    74  63  69 N5        29.98R
KENNESAW*      MOSUNNY   70  63  78 CALM      30.00
BLAIRSVILLE*     N/A     64  55  73 CALM      30.06S
$$

GAZ059>098-102>109-011300-
CENTRAL GEORGIA

CITY           SKY/WX    TMP DP  RH WIND       PRES   REMARKS
AUGUSTA-BUSH   SUNNY     75  73  93 CALM      29.93R
6HR MIN TEMP:  72; 6HR MAX TEMP:  75;

AUGUSTA-DANIEL SUNNY     77  73  87 CALM      29.94R
6HR MIN TEMP:  75; 6HR MAX TEMP:  79;

COLUMBUS       CLOUDY    72  72 100 NE3       29.92S FOG
6HR MIN TEMP:  72; 6HR MAX TEMP:  74;

MACON          PTSUNNY   75  72  88 NE3       29.93R FOG
6HR MIN TEMP:  71; 6HR MAX TEMP:  74;

ROBINS AFB     CLOUDY    72  72 100 NE1       29.92S


CITY           SKY/WX    TMP DP  RH WIND       PRES   REMARKS
LAGRANGE*      SUNNY     75  71  87 NE3       29.96R
SYLVANIA*      FOG       74  74 100 CALM      29.94R VSB 1/2
MILLEDGEVILLE* MOSUNNY   73  72  94 CALM      29.94R
$$

GAZ099>101-110>166-011300-
SOUTH GEORGIA

CITY           SKY/WX    TMP DP  RH WIND       PRES   REMARKS
SAVANNAH       CLOUDY    74  73  97 CALM      29.93R FOG
6HR MIN TEMP:  74; 6HR MAX TEMP:  76;

VALDOSTA       CLOUDY    77  77 100 S6        29.91R
6HR MIN TEMP:  76; 6HR MAX TEMP:  78;

ALMA           CLOUDY    75  74  96 CALM      29.93R FOG
6HR MIN TEMP:  74; 6HR MAX TEMP:  75;

ST SIMONS      CLOUDY    77  75  93 SW9       29.92R
6HR MIN TEMP:  76; 6HR MAX TEMP:  77;

ALBANY         CLOUDY    76  74  93 E5        29.93R
HUNTER AFB     SUNNY     76  76 100 SW2       29.91R
MOODY AFB      CLOUDY    76  74  95 SE3       29.90R FOG
BRUNSWICK      CLOUDY    75  73  94 SW7       29.93R


CITY           SKY/WX    TMP DP  RH WIND       PRES   REMARKS
BAINBRIDGE*    CLOUDY    79  77  94 N3        29.90S FOG
MOULTRIE*      CLOUDY    77  75  94 CALM      29.92R FOG
VIDALIA*       CLOUDY    73  72  94 CALM      29.94R FOG
WAYCROSS*      FOG       78  78 100 CALM        N/A  VSB 3/4
DOUGLAS*       FOG       77  75  94 CALM      29.95R VSB 1/4
$$



USA.gov is the U.S. government's official web portal to all federal, state and local government web resources and services.